星链-4152 (STARLINK-4152 )

导读

STARLINK-4152是美国(US)于2022年7月17日发射的星链卫星,隶属于SpaceX公司星链互联网星座项目,旨在为全球提供低延迟、高速率的卫星互联网服务,尤其为偏远地区、海上以及航空等场景提供网络覆盖,是星链大规模组网进程中部署的卫星之一。

Basic Information
目录编号:
53136
目录名称:
STARLINK-4152
国际标识:
2022-083E
轨道中心:
EARTH
卫星名称:
星链-4152
卫星全名:
星链-4152 (STARLINK-4152 )
卫星状态:
在轨 (已飞行1510 天)
发射日期:
2022-07-17 UTC
国别 :
美国 (US)
星等 :
--
Orbit Information
数据来源 国际轨道数据 AOE轨道数据
星历时间 2026-09-03T21:39:37+0800
19小时前
查看轨道信息
2026-09-03T12:00:00+0800
1天前
查看轨道信息
半长轴 6837.865km 6837.892km
偏心率 0.0000928 0.0001087
轨道倾角 53.159° 53.159°
近地点辐角 82.307° 81.774°
升交点赤经 84.894° 86.778°
平近点角 277.804° 212.232°
近地点 459.093km 459.011km
远地点 460.363km 460.499km
周期 93.787分钟 93.787分钟
每日圈数 15.354017 15.353928
Detailed Information
固有亮度:
5
最大亮度:
2.5
卫星平台:
Starlink v1.5
覆盖范围:
全球
运营商:
太空探索技术公司
运营商所在国:
美国
制造商(研发单位):
太空探索技术公司
制造商所在国:
美国
使用方式:
暂无
Satellite Introduction
星链(Starlink)计划是由太空探索技术公司(SpaceX)提出的一个巨型低轨卫星互联网星座项目,计划在2019年至2024年间在太空搭建由约1.2万颗卫星组成的“星链”网络,其中1584颗将部署在地球上空550千米处的近地轨道,并从2020年开始工作。该卫星仍在工作。
2D Orbit Map
3D Orbit Map
Orbit Altitude Analysis Chart
Orbit Inclination Analysis Chart
Orbit Comprehensive Analysis Chart
View Comprehensive Chart
Conjunction Data List
Event ID Objects TCA Miss Dist (km) Collision Risk Probability Collision Risk Index (CRI) Action
CDM_260905-173604-309905-313621
2026-09-05T
17:36:01+0000
1.266 km
极远距离
1.02998E-5 中风险 0.55
CDM_260828-051504-742305-313622
OBJECT L (47423)
2026-08-28T
05:15:42+0000
2.240 km
极远距离
2.179008E-6 低风险 0.42
CDM_260904-141405-313606-265924
2026-09-04T
14:14:04+0000
2.829 km
极远距离
1.315533E-6 低风险 0.37
CDM_260905-114805-313606-871021
2026-09-05T
11:48:59+0000
2.942 km
极远距离
1.218944E-6 低风险 0.37
CDM_260904-132005-313606-171322
2026-09-04T
13:20:43+0000
2.688 km
极远距离
1.15257E-6 低风险 0.36
CDM_260905-010005-313606-005221
2026-09-05T
01:00:51+0000
2.975 km
极远距离
1.098345E-6 低风险 0.36
CDM_260906-122005-313606-628121
2026-09-06T
12:20:52+0000
2.992 km
极远距离
2.572238E-7 极低风险 0.23